GW0143 Weather Reports


time (UTC)temp
F
wind
direction
speed
knots
gust
knots
rain 1hr
in
rain 24hr
in
rain mn
in
humidity
%
barometer
mb
20240723062529 46 0.0 0.0 0.00 0.02 0.00 85
20240723061529 47 0.0 0.0 0.00 0.02 0.00 85
20240723060529 47 0.0 0.0 0.00 0.02 0.00 85
20240723055529 48 0.0 0.0 0.00 0.02 0.02 83
20240723054529 49 0.0 0.0 0.00 0.02 0.02 83
20240723053529 49 0.0 0.0 0.00 0.02 0.02 83
20240723052550 49 0.0 0.0 0.00 0.02 0.02 83
20240723051530 49 0.0 0.0 0.00 0.02 0.02 84
20240723050530 49 0.0 0.0 0.00 0.02 0.02 84
20240723045550 48 0.0 0.0 0.00 0.02 0.02 84
20240723044531 48 0.0 0.0 0.00 0.02 0.02 84
20240723043551 49 0.0 0.0 0.00 0.02 0.02 84
20240723042531 49 0.0 0.0 0.00 0.02 0.02 83
20240723041531 50 0.0 0.0 0.00 0.02 0.02 82
20240723040532 51 0.0 0.0 0.00 0.02 0.02 81
20240723035532 52 0.0 0.0 0.00 0.02 0.02 80
20240723034517 52 0.0 0.0 0.02 0.02 0.02 77
20240723033532 52 0.0 0.0 0.02 0.02 0.02 80
20240723032532 52 0.0 0.0 0.02 0.02 0.02 79
20240723031533 53 0.0 0.0 0.02 0.02 0.02 80
20240723030553 54 0.0 0.0 0.02 0.02 0.02 76
20240723025518 55 0.0 0.0 0.02 0.02 0.02 74
20240723024518 57 0.0 0.0 0.00 0.00 0.00 67
20240723023518 57 0.0 0.0 0.00 0.00 0.00 65
20240723022518 57 0.0 0.0 0.00 0.00 0.00 65
20240723021518 58 0.0 0.0 0.00 0.00 0.00 66
20240723020539 59 0.0 0.0 0.00 0.00 0.00 61
20240723015519 58 0.0 0.0 0.00 0.00 0.00 62
20240723014519 58 0.0 0.0 0.00 0.00 0.00 63
20240723013519 59 0.0 0.0 0.00 0.00 0.00 60
20240723012520 60 0.0 0.0 0.00 0.00 0.00 57
20240723011520 61 0.0 0.0 0.00 0.00 0.00 56
20240723010520 62 0.0 0.0 0.00 0.00 0.00 54
20240723005520 63 0.0 0.0 0.00 0.00 0.00 51
20240723004521 64 0.0 0.0 0.00 0.00 0.00 51
20240723003520 65 0.0 0.0 0.00 0.00 0.00 49
20240723002521 66 0.0 0.0 0.00 0.00 0.00 46
20240723001521 65 0.0 0.0 0.00 0.00 0.00 48
20240723000521 65 0.0 0.0 0.00 0.00 0.00 48
20240722235522 65 0.0 0.0 0.00 0.01 0.00 47
20240722234542 65 0.0 0.0 0.00 0.04 0.00 47
20240722233522 66 0.0 0.0 0.00 0.04 0.00 47
20240722232542 67 0.0 0.0 0.00 0.04 0.00 44
20240722231522 68 0.0 0.0 0.00 0.04 0.00 43
20240722230523 69 0.0 0.0 0.00 0.04 0.00 44
20240722225523 69 0.0 0.0 0.00 0.04 0.00 41
20240722224523 69 0.0 0.0 0.00 0.04 0.00 42
20240722223543 68 0.0 0.0 0.00 0.04 0.00 42
20240722222524 68 0.0 0.0 0.00 0.04 0.00 42
20240722221524 68 0.0 0.0 0.00 0.04 0.00 44
20240722220524 68 0.0 0.0 0.00 0.04 0.00 45
20240722215524 67 0.0 0.0 0.00 0.04 0.00 45
20240722214524 68 0.0 0.0 0.00 0.04 0.00 44
20240722213524 66 0.0 0.0 0.00 0.04 0.00 46
20240722212525 66 0.0 0.0 0.00 0.04 0.00 48
20240722211525 67 0.0 0.0 0.00 0.04 0.00 45
20240722210525 67 0.0 0.0 0.00 0.04 0.00 42
20240722205525 67 0.0 0.0 0.00 0.04 0.00 42
20240722204525 67 0.0 0.0 0.00 0.04 0.00 44
20240722203526 67 0.0 0.0 0.00 0.04 0.00 45
20240722202526 65 0.0 0.0 0.00 0.04 0.00 47
20240722201526 64 0.0 0.0 0.00 0.13 0.00 49
20240722200526 65 0.0 0.0 0.00 0.26 0.00 49
20240722195526 66 0.0 0.0 0.00 0.26 0.00 47
20240722194527 65 0.0 0.0 0.00 0.26 0.00 42
20240722193547 65 0.0 0.0 0.00 0.27 0.00 45
20240722192527 67 0.0 0.0 0.00 0.28 0.00 45
20240722191527 67 0.0 0.0 0.00 0.28 0.00 44
20240722190527 66 0.0 0.0 0.00 0.34 0.00 46
20240722185527 66 0.0 0.0 0.00 0.34 0.00 44
20240722184528 66 0.0 0.0 0.00 0.36 0.00 45
20240722183528 65 0.0 0.0 0.00 0.36 0.00 46
20240722182529 65 0.0 0.0 0.00 0.36 0.00 47
20240722181528 65 0.0 0.0 0.00 0.36 0.00 46
20240722180529 65 0.0 0.0 0.00 0.36 0.00 46
20240722175529 65 0.0 0.0 0.00 0.36 0.00 45
20240722174529 64 0.0 0.0 0.00 0.36 0.00 47
20240722173549 63 0.0 0.0 0.00 0.36 0.00 51
20240722172550 63 0.0 0.0 0.00 0.36 0.00 52
20240722171530 63 0.0 0.0 0.00 0.36 0.00 53
20240722170530 62 0.0 0.0 0.00 0.36 0.00 54
20240722165550 62 0.0 0.0 0.00 0.36 0.00 57
20240722164531 61 0.0 0.0 0.00 0.36 0.00 59
20240722163530 60 0.0 0.0 0.00 0.36 0.00 61
20240722162531 60 0.0 0.0 0.00 0.36 0.00 62
20240722161531 59 0.0 0.0 0.00 0.36 0.00 62
20240722160531 58 0.0 0.0 0.00 0.36 0.00 65
20240722155532 58 0.0 0.0 0.00 0.36 0.00 68
20240722154532 57 0.0 0.0 0.00 0.36 0.00 70
20240722153537 57 0.0 0.0 0.00 0.36 0.00 71
20240722152517 56 0.0 0.0 0.00 0.36 0.00 72
20240722151517 55 0.0 0.0 0.00 0.36 0.00 74
20240722150518 55 0.0 0.0 0.00 0.36 0.00 75
20240722145518 54 0.0 0.0 0.00 0.36 0.00 76
20240722144518 53 0.0 0.0 0.00 0.36 0.00 78
20240722143518 53 0.0 0.0 0.00 0.36 0.00 80
20240722142519 53 0.0 0.0 0.00 0.36 0.00 79
20240722141518 52 0.0 0.0 0.00 0.36 0.00 78
20240722140519 51 0.0 0.0 0.00 0.36 0.00 82
20240722135539 51 0.0 0.0 0.00 0.36 0.00 83
20240722134539 50 0.0 0.0 0.00 0.36 0.00 83
20240722133539 48 0.0 0.0 0.00 0.36 0.00 84
20240722132519 45 0.0 0.0 0.00 0.36 0.00 86
20240722131516 44 0.0 0.0 0.00 0.36 0.00 87
20240722130516 43 0.0 0.0 0.00 0.36 0.00 88
20240722125517 41 0.0 0.0 0.00 0.36 0.00 89
20240722124517 39 0.0 0.0 0.00 0.36 0.00 89
20240722123540 39 0.0 0.0 0.00 0.36 0.00 89
20240722122521 38 0.0 0.0 0.00 0.36 0.00 90
20240722121538 37 0.0 0.0 0.00 0.36 0.00 90
20240722120518 37 0.0 0.0 0.00 0.36 0.00 90
20240722115518 38 0.0 0.0 0.00 0.36 0.00 90
20240722114518 37 0.0 0.0 0.00 0.36 0.00 90
20240722113518 38 0.0 0.0 0.00 0.36 0.00 89
20240722112519 39 0.0 0.0 0.00 0.36 0.00 89
20240722111519 38 0.0 0.0 0.00 0.36 0.00 89
20240722110519 38 0.0 0.0 0.00 0.36 0.00 89
20240722105519 39 0.0 0.0 0.00 0.36 0.00 89
20240722104519 39 0.0 0.0 0.00 0.36 0.00 89
20240722103519 39 0.0 0.0 0.00 0.36 0.00 89
20240722102520 39 0.0 0.0 0.00 0.36 0.00 88
20240722101527 40 0.0 0.0 0.00 0.36 0.00 88
20240722100520 41 0.0 0.0 0.00 0.36 0.00 86
20240722095521 41 0.0 0.0 0.00 0.36 0.00 88
20240722094541 41 0.0 0.0 0.00 0.36 0.00 87
20240722093521 40 0.0 0.0 0.00 0.36 0.00 88
20240722092521 40 0.0 0.0 0.00 0.36 0.00 87
20240722091541 41 0.0 0.0 0.00 0.36 0.00 86
20240722090521 41 0.0 0.0 0.00 0.36 0.00 86
20240722085522 40 0.0 0.0 0.00 0.36 0.00 88
20240722084542 40 0.0 0.0 0.00 0.36 0.00 88
20240722083542 40 0.0 0.0 0.00 0.36 0.00 88
20240722082522 42 0.0 0.0 0.00 0.36 0.00 86
20240722081523 42 0.0 0.0 0.00 0.36 0.00 86
20240722080523 41 0.0 0.0 0.00 0.36 0.00 87
20240722075523 42 0.0 0.0 0.00 0.36 0.00 87
20240722074523 42 0.0 0.0 0.00 0.36 0.00 87
20240722073523 41 0.0 0.0 0.00 0.36 0.00 88
20240722072523 41 0.0 0.0 0.00 0.36 0.00 87
20240722071524 41 0.0 0.0 0.00 0.36 0.00 87
20240722070524 42 0.0 0.0 0.00 0.36 0.00 85
20240722065524 42 0.0 0.0 0.00 0.36 0.00 88
20240722064524 42 0.0 0.0 0.00 0.36 0.00 87
20240722063524 44 0.0 0.0 0.00 0.36 0.00 85